DateTimeUTC,F1_A11,F1_S11,BsB_S11,BsG_S11,BsR_S11,BbsB_S11,BbsG_S11,BbsR_S11,BaB_A11,BaG_A11,BaR_A11,Tu_S11,T_S11,Uu_S11,U_S11,P_S11,T1_A11
2021-07-08T17:00:00Z,00000200,20000000,,,,,,,0000.06,-000.19,0000.06,18.1,24.8,03.6,02.4,0659.9,30.9
2021-07-08T17:01:00Z,00000200,20000000,,,,,,,-000.16,0000.21,0000.18,18.1,24.8,03.6,02.4,0659.9,30.9
2021-07-08T17:02:00Z,00000200,20000000,,,,,,,0000.03,-000.09,-000.45,18.1,24.8,03.6,02.4,0659.9,30.9
2021-07-08T17:03:00Z,00000200,60000000,,,,,,,0000.07,-000.24,0000.26,18.1,24.8,03.6,02.4,0659.9,30.9
2021-07-08T17:04:00Z,00000200,40000000,0000.28,0000.02,-000.11,0000.49,-000.12,0000.25,0000.10,0000.29,-000.13,18.1,24.5,03.8,02.6,0660.7,30.9
2021-07-08T17:05:00Z,00000200,00000000,0000.51,0000.12,0000.33,0000.06,0000.04,-000.10,0000.02,0000.08,-000.00,18.1,24.5,03.8,02.6,0660.8,30.9
2021-07-08T17:06:00Z,00000200,00000000,0000.17,0000.16,0000.33,-000.15,0000.08,0000.02,0000.32,-000.16,0000.31,18.1,24.5,03.9,02.6,0660.7,31.0
2021-07-08T17:07:00Z,00000200,00000000,0000.61,-000.21,0000.10,-000.51,0000.02,-000.05,0000.16,0000.43,0000.24,18.2,24.5,03.9,02.6,0660.9,31.0
2021-07-08T17:08:00Z,00000200,00000000,0000.12,-000.23,0000.02,0000.28,0000.18,0000.16,-000.42,-000.20,-000.28,18.3,24.5,04.0,02.7,0660.9,31.0
2021-07-08T17:09:00Z,00000200,00000000,-000.45,0000.02,-000.08,-000.55,0000.17,-000.08,0000.09,0000.19,-000.04,18.4,24.6,03.9,02.7,0660.9,31.0
2021-07-08T17:10:00Z,00000200,00000000,0000.02,-000.02,0000.10,0000.04,0000.18,0000.13,0000.04,-000.37,0000.32,18.4,24.6,03.8,02.6,0660.8,31.0
2021-07-08T17:11:00Z,00000200,00000000,0000.03,-000.35,-000.12,0000.30,0000.13,0000.33,0000.12,0000.39,-000.35,18.4,24.6,03.8,02.6,0660.8,31.0
2021-07-08T17:12:00Z,00000200,00000000,0000.16,-000.24,0000.02,-000.01,0000.24,-000.10,0000.06,0000.44,0000.30,18.4,24.6,03.8,02.6,0660.9,31.0
2021-07-08T17:13:00Z,00000200,00000000,0000.21,-000.08,0000.25,-000.39,0000.43,0000.01,-000.34,-000.37,-000.07,18.4,24.6,04.0,02.7,0661.0,31.0
2021-07-08T17:14:00Z,00000200,00000000,0000.10,-000.09,0000.09,-000.56,-000.02,0000.19,0000.24,-000.16,-000.03,18.3,24.6,04.0,02.7,0661.0,31.0
2021-07-08T17:15:00Z,00000200,00000000,0000.35,0000.13,-000.04,0000.48,0000.03,0000.42,-000.01,-000.22,-000.17,18.3,24.6,03.9,02.7,0660.9,31.0
2021-07-08T17:16:00Z,00000200,00000000,-000.18,0000.03,0000.09,0000.10,0000.17,-000.28,-000.15,-000.00,-000.13,18.3,24.5,03.9,02.7,0661.0,31.0
2021-07-08T17:17:00Z,00000200,00000000,0000.02,-000.36,-000.21,0000.00,0000.12,0000.31,0000.21,0000.26,0000.14,18.2,24.5,03.8,02.6,0661.0,30.9
2021-07-08T17:18:00Z,00000200,00000000,-000.15,0000.57,0000.18,-000.27,0000.01,0000.06,-000.21,-000.06,0000.02,18.2,24.5,03.8,02.6,0660.9,30.9
2021-07-08T17:19:00Z,00000200,00000000,0000.91,0000.25,-000.05,-000.17,0000.18,0000.15,0000.09,-000.03,-000.01,18.2,24.5,03.7,02.5,0660.9,30.9
2021-07-08T17:20:00Z,00000200,00000000,0000.21,-000.13,0000.17,0000.47,-000.14,-000.01,0000.11,0000.11,-000.06,18.2,24.5,03.9,02.6,0660.9,30.9
2021-07-08T17:21:00Z,00000200,00000000,0000.01,0000.10,-000.14,-000.01,0000.35,-000.07,0000.08,0000.30,0000.01,18.2,24.5,03.8,02.6,0660.9,31.0
2021-07-08T17:22:00Z,00000200,00000000,0000.38,-000.36,0000.55,0000.02,-000.02,0000.37,0000.15,0000.17,0000.35,18.3,24.5,04.0,02.7,0660.9,31.0
2021-07-08T17:23:00Z,00000200,00000000,-000.19,0000.13,0000.17,-000.18,-000.04,0000.02,0000.28,-000.02,-000.03,18.4,24.6,03.9,02.7,0661.0,31.0
2021-07-08T17:24:00Z,00000200,00000000,0000.07,-000.32,-000.05,0000.18,0000.28,-000.01,-000.07,-000.49,0000.18,18.4,24.6,03.9,02.7,0661.1,31.0
2021-07-08T17:25:00Z,00000200,00000000,0000.42,-000.02,0000.05,0000.88,0000.15,0000.24,-000.34,0000.33,-000.22,18.5,24.6,03.9,02.7,0661.1,31.0
2021-07-08T17:26:00Z,00000200,00000000,-000.29,0000.21,-000.10,0000.30,0000.18,0000.05,-000.12,-000.35,-000.07,18.5,24.6,03.7,02.5,0661.0,31.0
2021-07-08T17:27:00Z,00000200,00000000,0000.30,-000.01,0000.40,0000.23,0000.18,0000.12,-000.47,-000.08,-000.14,18.5,24.6,03.6,02.5,0661.0,31.0
2021-07-08T17:28:00Z,00000200,00000000,0000.08,-000.11,0000.33,-000.05,-000.01,-000.15,0000.43,0000.31,0000.10,18.4,24.6,03.6,02.5,0661.1,31.0
2021-07-08T17:29:00Z,00000200,00000000,-000.30,-000.31,0000.06,0000.23,0000.00,0000.24,0000.23,-000.20,0000.06,18.4,24.6,03.6,02.4,0661.0,31.0
2021-07-08T17:30:00Z,00000200,00000000,-000.18,0000.19,-000.16,-000.26,-000.20,0000.32,-000.18,0000.16,0000.15,18.3,24.6,03.5,02.4,0661.1,31.0
2021-07-08T17:31:00Z,00000200,00000000,-000.50,-000.03,0000.07,-000.25,0000.28,0000.13,-000.08,-000.01,-000.18,18.3,24.5,03.7,02.5,0661.1,31.0
2021-07-08T17:32:00Z,00000200,00000000,0000.27,0000.03,0000.37,-000.14,0000.09,0000.09,0000.23,0000.24,-000.03,18.3,24.5,03.7,02.5,0661.3,31.0
2021-07-08T17:33:00Z,00000200,00000000,-000.26,-000.08,0000.35,0000.10,0000.16,0000.28,0000.03,-000.17,-000.14,18.2,24.5,03.9,02.6,0661.1,30.9
2021-07-08T17:34:00Z,00000200,00000000,0000.07,-000.11,0000.18,-000.14,-000.06,0000.14,0000.13,-000.23,0000.10,18.2,24.5,03.9,02.7,0661.0,30.9
2021-07-08T17:35:00Z,00000200,00000000,-000.04,0000.07,0000.01,-000.36,0000.16,-000.20,-000.10,0000.36,0000.30,18.2,24.5,03.7,02.5,0661.1,31.0
2021-07-08T17:36:00Z,00000200,00000000,0000.30,-000.20,-000.13,0000.47,0000.05,0000.16,-000.06,0000.02,-000.20,18.3,24.5,03.8,02.6,0661.2,31.0
2021-07-08T17:37:00Z,00000200,00000000,-000.15,0000.16,0000.31,-000.31,0000.19,-000.04,0000.30,0000.17,-000.02,18.4,24.5,03.7,02.6,0661.3,31.0
2021-07-08T17:38:00Z,00000200,00000000,-000.16,0000.37,-000.10,-000.13,0000.03,0000.02,-000.11,-000.03,0000.32,18.4,24.6,03.8,02.6,0661.3,31.0
2021-07-08T17:39:00Z,00000200,00000000,-000.11,-000.12,-000.31,0000.33,0000.10,0000.02,0000.45,0000.34,0000.06,18.5,24.6,03.9,02.7,0661.3,31.0
2021-07-08T17:40:00Z,00000200,00000000,0000.02,0000.02,-000.28,-000.68,0000.42,0000.33,-000.61,-000.11,-000.10,18.6,24.7,03.9,02.7,0661.3,31.0
2021-07-08T17:41:00Z,00000200,00000000,0000.80,0000.35,0000.30,-000.19,-000.09,0000.09,0000.26,-000.20,-000.11,18.6,24.7,03.7,02.6,0661.3,31.0
2021-07-08T17:42:00Z,00000200,00000000,0000.37,-000.37,0000.15,-000.23,-000.13,-000.02,-000.29,-000.17,-000.10,18.5,24.6,03.7,02.5,0661.2,31.0
2021-07-08T17:43:00Z,00000200,00000000,0000.21,0000.04,-000.10,-000.30,0000.44,-000.08,0000.35,-000.08,0000.03,18.5,24.6,03.6,02.5,0661.2,31.0
2021-07-08T17:44:00Z,00000200,00000000,0000.31,-000.37,0000.06,0000.43,-000.18,0000.25,-000.10,-000.06,-000.14,18.5,24.6,03.6,02.5,0661.3,31.0
2021-07-08T17:45:00Z,00000200,00000000,0000.51,-000.22,0000.23,0000.19,0000.03,0000.10,-000.35,0000.10,-000.01,18.4,24.6,03.6,02.5,0661.3,31.0
2021-07-08T17:46:00Z,00000200,00000000,-000.08,0000.05,0000.14,0000.15,0000.11,0000.23,0000.09,0000.21,0000.12,18.4,24.6,03.6,02.4,0661.4,31.0
2021-07-08T17:47:00Z,00000200,00000000,-000.06,0000.01,-000.11,0000.04,0000.15,0000.10,0000.45,-000.23,0000.09,18.4,24.6,03.8,02.6,0661.5,31.0
2021-07-08T17:48:00Z,00000200,00000000,-000.88,0000.15,0000.28,0000.41,0000.05,0000.05,-000.12,0000.04,0000.18,18.3,24.6,03.8,02.6,0661.5,31.0
2021-07-08T17:49:00Z,00000200,00000000,0000.48,-000.09,-000.08,0000.25,-000.03,0000.10,0000.18,0000.11,-000.03,18.3,24.5,03.8,02.6,0661.6,31.0
2021-07-08T17:50:00Z,00000200,00000000,-000.44,-000.18,0000.04,-000.04,-000.01,0000.01,-000.14,0000.19,0000.21,18.3,24.5,03.9,02.7,0661.7,31.0
2021-07-08T17:51:00Z,00000200,00000000,-000.06,-000.24,-000.17,-000.03,0000.03,0000.18,0000.12,0000.22,0000.17,18.4,24.6,03.9,02.7,0661.6,31.0
2021-07-08T17:52:00Z,00000200,00000000,0000.48,-000.03,0000.28,0000.09,0000.20,0000.20,-000.06,-000.08,-000.35,18.4,24.6,03.8,02.6,0661.3,31.0
2021-07-08T17:53:00Z,00000200,00000000,0000.46,-000.22,0000.23,-000.34,-000.10,0000.26,0000.06,-000.18,0000.12,18.5,24.7,03.6,02.5,0661.4,31.0
2021-07-08T17:54:00Z,00000200,00000000,-000.04,0000.00,0000.37,0000.42,0000.36,0000.37,-000.17,-000.01,0000.21,18.6,24.7,03.6,02.5,0661.5,31.0
2021-07-08T17:55:00Z,00000200,00000000,-000.11,-000.16,0000.16,0000.38,-000.02,0000.30,-000.23,-000.20,-000.18,18.6,24.7,03.6,02.5,0661.5,31.0
2021-07-08T17:56:00Z,00000200,00000000,0000.06,0000.10,0000.38,-000.29,-000.02,0000.35,0000.36,0000.15,-000.23,18.6,24.7,03.6,02.4,0661.6,31.0
2021-07-08T17:57:00Z,00000200,40000000,,,,,,,-000.14,0000.07,0000.05,18.6,24.7,03.5,02.4,0661.6,31.0
2021-07-08T17:58:00Z,00000200,60000000,,,,,,,0000.04,-000.01,-000.25,18.4,24.8,03.5,02.3,0660.6,31.0
2021-07-08T17:59:00Z,00000200,20000000,,,,,,,-000.01,-000.36,0000.05,18.3,24.9,03.3,02.2,0660.6,31.0
